ELECTRON KICK STAGE R/B, 62086

Orbit data source: Space-Track

ELECTRON KICK STAGE R/B, 62086 is space debris in SSO originally from a launch on Mon, 25 Nov 2024 UTC launched from the Rocket Lab Launch Complex (RLLC). Debris objects in space refer to the collection of defunct objects orbiting the Earth. Examples of debris include non-operational satellites, rocket bodies, and fragments generated from explosions, collisions, or faulty payload assembly.

Loading next visibility...
Identifier
62086, 2024-219F
Orbit
SSO
Country
Flag of USUS
Related business
Manufacturer
Rocket Lab
Mission
Spacecraft
Bus & Motor
KICK STAGE, CURIE
Mass
~50 kg wet, ~50 kg dry
Launch date (UTC)
2024-11-25 (1 year ago)
Launch vehicle
Unknown
Launch site
Rocket Lab Launch Complex (RLLC)
Object type
Payload
Rocket body
Debris
Shape & HBR
Trunc Cone, 0.7 m
Radar Cross Section
0.760 m², Medium (>0.1 m² and < 1m²)

Expand to show TLE details & history
Last TLE update: 7 hours ago

TLE from 7 hours ago
0 ELECTRON KICK STAGE R/B
1 62086U 24219F   25346.99954490  .00007551  00000-0  67486-3 0  9991
2 62086  97.9699 156.1590 0052669 211.0417 148.7688 14.95127298 57107
Epoch: 2025-12-12T23:59Z
TLE epoch observation values (Epoch: 2025-12-12T23:59:20.679Z)
Latitude
-0.00002°
Longitude
74.38973°
Altitude
616.422 km
Speed
7.534 km/s
True Right ascension
10h 24m 38s
True Declination
0° 00' 00"
Sunlit
Object was in daylight at epoch
Visualization orbit readout
Latitude
Unknown
Longitude
Unknown
Altitude
Unknown
Speed
Unknown
Apparent Right ascension
Unknown
Apparent Declination
Unknown
Sunlit
N/A
Visualization observer readout
Local Sidereal Time
05:22:32
Azimuth
Unknown
Elevation
Unknown
Doppler factor
Unknown
Orbital elements
Apogee altitude
615.644 km
Perigee altitude
542.359 km
Semi-major axis
6,957.138 km
Eccentricity
0.00527
Inclination
97.9699°
RAAN
156.159°
Arg. of periapsis
211.0417°
True anomaly
149.07998°
Mean anomaly
148.7688°
Eccentric anomaly
148.92456°
Mean motion
3.74022 °/min
Orbital period
96.25 mins
BSTAR
0.00067486
Loading maneuver chart data...
Computing Atmospheric mass density...
Loading historical data...
Loading historical data...
Loading historical data...
Loading historical data...
Loading historical data...
Loading historical data...
Loading historical data...

Documentation

Showing up to 5 results
|